Location: Cazavet
(43.0017°N, 1.0431°E)
Time: 09:00:58
(UTC+00:00)

Lacrosse 4 Rocket - Pass Details

Date: 18 January 2026
Orbit: 513 x 564 km, 68.0° (Epoch: 10 February)

Event Time Altitude Azimuth Distance (km) Brightness Sun altitude
Exits shadow 04:57:18 10° 173° (S) 1,756 4.0 -26.2°
Maximum altitude 05:00:45 30° 111° (ESE) 954 3.1 -25.6°
Drops below altitude 10° 05:04:11 10° 50° (NE) 1,754 4.4 -25.0°
Sets 05:06:31 0° 39° (NE) 2,641 5.2 -24.6°
